Regional Weather Roundup
Issued by NWS Bismarck, ND

Home | Current Version | Previous Version | Text Only | Print | Product List | Glossary On
Versions: 1 2 3 4 5 6 7 8 9 10 11 12 13 14 15 16 17 18 19 20 21 22 23 24 25 26 27 28 29 30 31 32 33 34 35 36 37 38 39 40 41 42 43 44 45 46 47 48 49 50
000
ASUS43 KBIS 070902
RWRBIS

NWR BROADCAST TEXT
NATIONAL WEATHER SERVICE BISMARCK ND
300 AM CST SUN FEB 07 2016

NOTE: "FAIR" INDICATES FEW OR NO CLOUDS BELOW 12,000 FEET WITH NO
SIGNIFICANT WEATHER AND/OR OBSTRUCTIONS TO VISIBILITY.


CITY           SKY/WX    TMP DP  RH WIND       PRES   REMARKS
WILLISTON      PTCLDY    35  21  56 W23G40    29.83S
MINOT          MOCLDY    38  20  48 W24G37    29.69R
MINOT AFB      MOCLDY    35  23  62 W20G30    29.67R
BISMARCK       CLEAR     39  25  57 W26G35    29.79S
DICKINSON      CLEAR     32  24  72 W25G36    29.85F WCI  19
GARRISON         N/A     34  22  61 W20G28    29.75R
HETTINGER ARPT CLOUDY    33  26  75 W24       29.94R
JAMESTOWN      PTCLDY    36  24  62 W29G38    29.63R
CARRINGTON     FAIR      36  28  75 W31G38    29.64R
HAZEN          FAIR      34  21  60 W17G25    29.81S
LINTON         FAIR      36  27  69 W22G29    29.82S
OAKES          FAIR      36  27  69 NW30G43   29.65S
STANLEY        FAIR      32  23  69 NW29G46   29.74R WCI  18
$$

CITY           SKY/WX    TMP DP  RH WIND       PRES   REMARKS
GRAND FORKS    MIX PCPN  36  32  85 W22       29.48R
GRAND FORKS AF LGT SNOW  34  32  93 W25G40    29.49R FOG
DEVILS LAKE    MOCLDY    35  27  72 W31G38    29.55R
FARGO          LGT RAIN  36  32  85 W22       29.56R
GRAFTON        DRIZZLE   36  36 100 NW25G35   29.48R
GWINNER        FAIR      37  28  70 W22G32    29.65R
LANGDON        LGT SNOW  34  32  93 W31G39    29.47R WCI  20
$$

CITY           SKY/WX    TMP DP  RH WIND       PRES   REMARKS
ABERDEEN       CLOUDY    39  24  55 W23G30    29.76R
MOBRIDGE       CLEAR     38  25  59 NW22G33   29.83R
BUFFALO          N/A     35  22  58 NW31G40   29.93R
RAPID CITY     CLOUDY    37  16  42 NW26      30.04R
GLASGOW        PTCLDY    31  21  66 NW25      30.04R WCI  17
SIDNEY         CLEAR     36  19  51 W31G45    29.90R
WOLF POINT     CLEAR     34  22  61 W23G32    29.97R
GLENDIVE       CLEAR     32  21  64 W26G35    30.00S WCI  18
MILES CITY     CLEAR     35  19  52 NW24G32   30.09R
BAKER          CLOUDY    35  19  52 NW29G41   30.00R
$$

CITY           SKY/WX    TMP DP  RH WIND       PRES   REMARKS
BILLINGS       PTCLDY    35  14  42 NW15      30.23S
GREAT FALLS    CLEAR     23  15  71 SW13      30.28R WCI  11
$$




USA.gov is the U.S. government's official web portal to all federal, state and local government web resources and services.